Flag for India Weather past 2 weeks in Kãnpur, Uttar Pradesh, India

Now
79 °F

Haze.


Feels Like: 81 °F
Forecast: 80 / 105 °F
Wind: 8 mph from East

Location: Lucknow / Amausi

Current Time: Apr 20, 2015 at 6:53:28 AM

Latest Report: Apr 20, 2015 at 6:00 AM


Visibility: 2 mi

Pressure: 29.74 "Hg

Humidity: 74%

Dew point: 70 °F

Location of KãnpurLocation

Historic Weather in Kãnpur — Graph

°F

Kãnpur temperature yesterday

Maximum temperature yesterday: 104 °F (at 2:00 PM)
Minimum temperature yesterday: 73 °F (at 5:00 AM)
Average temperature yesterday: 91 °F

Past Weeks' High & Low Weather Summary

 TemperatureHumidityPressure
High104 °F (Apr 18, 3:30 PM)94% (Apr 13, 2:00 AM)30.01 "Hg (Apr 13, 2:00 AM)
Low63 °F (Apr 8, 6:30 AM)17% (Apr 11, 3:30 PM)29.53 "Hg (Apr 18, 3:00 PM)
Average82 °F53%29.80 "Hg
* Reported Apr 5 5:00 AM — Apr 20 5:00 AM, Kãnpur, Weather by CustomWeather, © 2015

Note: Actual official high and low records may vary slightly from our data, if they occured in-between our weather recording intervals... More about our weather records

Advertising

Kãnpur weather history for previous 24 hours

 ConditionsComfort  
Time TempWeatherWind HumidityBarometerVisibility
5:00 AM
Mon, Apr 20
79 °FHaze.8 mph74%29.71 "Hg2 mi
4:00 AM81 °FHaze.8 mph70%29.71 "Hg2 mi
3:00 AM81 °FHaze.6 mph70%29.71 "Hg2 mi
2:00 AM82 °FHaze.6 mph66%29.71 "Hg2 mi
1:00 AM84 °FHaze.5 mph62%29.71 "Hg2 mi
12:00 AM86 °FHaze.6 mph55%29.74 "Hg2 mi
11:00 PM
Sun, Apr 19
88 °FHaze.No wind49%29.71 "Hg2 mi
10:00 PM88 °FHaze.No wind52%29.71 "Hg2 mi
9:00 PM91 °FHaze.No wind46%29.68 "Hg2 mi
8:30 PM91 °FHaze.No wind49%29.68 "Hg2 mi
8:00 PM93 °FHaze.No wind47%29.65 "Hg2 mi
7:30 PM95 °FHaze.2 mph44%29.65 "Hg2 mi
7:00 PM97 °FHaze.2 mph42%29.65 "Hg2 mi
6:30 PM99 °FHaze.3 mph39%29.62 "Hg2 mi
6:00 PM100 °FHaze.3 mph40%29.62 "Hg2 mi
5:30 PM102 °FHaze.2 mph35%29.62 "Hg2 mi
5:00 PM104 °FHaze.2 mph26%29.59 "Hg2 mi
4:30 PM104 °FHaze.2 mph28%29.59 "Hg2 mi
4:00 PM104 °FHaze.2 mph28%29.59 "Hg2 mi
3:30 PM104 °FHaze.2 mph28%29.59 "Hg2 mi
3:00 PM104 °FHaze.3 mph28%29.62 "Hg2 mi
2:00 PM104 °FHaze.3 mph26%29.65 "Hg2 mi
1:30 PM102 °FHaze.2 mph26%29.65 "Hg2 mi
1:00 PM102 °FHaze.2 mph26%29.68 "Hg2 mi
12:30 PM102 °FHaze.2 mph29%29.68 "Hg2 mi
12:00 PM100 °FHaze.2 mph35%29.68 "Hg2 mi
11:00 AM97 °FHaze.2 mph44%29.71 "Hg2 mi
10:30 AM93 °FHaze.2 mph47%29.71 "Hg2 mi
10:00 AM93 °FHaze.2 mph47%29.71 "Hg2 mi
9:00 AM86 °FHaze.2 mph55%29.71 "Hg1 mi
8:30 AM82 °FHaze.3 mph62%29.68 "Hg1 mi
8:00 AM81 °FHaze.3 mph66%29.68 "Hg1 mi
7:30 AM77 °FHaze.2 mph69%29.68 "Hg2 mi
7:00 AM75 °FFog.No wind74%29.65 "Hg2 mi
6:30 AM73 °FFog.No wind78%29.65 "Hg2 mi
Weather by CustomWeather, © 2015

See weather overviewHow to use our weather pages